Weather in Vetrino

Belarus     55°24′34″N   28°28′19″E
temp.,
°C
wind,
m/s
gust,
m/s
humid.,
%
clouds,
%
prec.,
mm/h
press.,
hPa
HPBL,
m
16 april, fri
fri1600:00+7ne51391100 0.0 1016654
03:00+6ne51492100 0.0 1016653
06:00+6ne51393100 0.3 1016600
09:00+6ne61391100 1.0 1016720
12:00+9ene5108599 0.1 1017723
15:00+11ene51080100 0.1 10181050
18:00+11ene6107998 0.0 1018907
21:00+9ene51189100 0.2 1019691
17 april, sat
sat1700:00+9ne51193100 4.4 1019837
03:00+9ne4119298 5.5 1019650
06:00+8ene4109298 0.1 1020594
09:00+8ene499051 0.1 1021484
12:00+12e4674100 0.0 1022950
15:00+12ene4675100 0.1 1023909
18:00+12ne597276 0.0 1022800
21:00+11ne41177100 0.0 1023531
18 april, sun
sun1800:00+10ne4117988 0.0 1023481
03:00+7ne4118376 0.0 1023360
06:00+5ne3108166 0.0 1023312
09:00+8ene486318 0.0 1023534
12:00+12ene474992 0.0 10231065
15:00+15ene57394 0.0 10221678
18:00+14ene46445 0.0 10221881
21:00+11e3957100 0.0 1023418
19 april, mon
mon1900:00+9e3869100 0.0 1024600
03:00+8ne257778 0.0 1025199
06:00+5ene39865 0.0 1025227
09:00+9ene49605 0.0 1025662
12:00+13e574569 0.0 10241928
15:00+13e4744100 0.0 10232238
18:00+11e485999 0.0 10231154
21:00+9ene397192 0.0 1023663
20 april, tue
tue2000:00+8e3977100 0.1 1023837
03:00+7ene4979100 0.1 1022661
06:00+6ene498221 0.1 1021668
09:00+8ene596695 0.1 1019948
12:00+9ene685673 0.0 10171228
15:00+11ene5847100 0.0 10152126
18:00+10ne595083 0.0 10121852
21:00+7ne51062100 0.0 1010977